Theta_e
310 312 313 314 313 309 313 314 311 315 316 315 316 315 316 311 318 328 315 317 318 315 316 317 318 318 318 318 318 319 319 319 320 322 323 324 325 327 330 332 335 338 340 340 340 340 338 336 336
310 312 314 311 310 313 312 309 313 315 316 314 314 315 313 311 311 311 313 314 314 313 311 314 316 316 315 315 315 314 315 313 311 311 311 317 319 321 324 328 329 333 336 339 340 340 340 337 336
310 311 311 311 311 309 309 311 313 314 313 314 314 312 311 309 310 312 313 312 313 312 309 311 314 314 311 308 308 305 307 309 311 309 309 307 307 306 311 318 326 328 330 334 337 339 340 340 338
307 309 306 311 313 311 312 310 310 312 314 312 312 311 307 307 312 312 312 311 311 311 306 309 312 310 305 304 304 304 303 302 302 302 303 304 303 303 302 304 310 321 329 328 331 334 336 339 340
307 305 309 308 308 308 307 309 309 309 312 313 312 312 307 307 311 312 310 309 310 309 303 303 303 303 301 301 300 300 301 300 300 300 300 300 300 305 305 303 305 307 311 319 328 330 334 335 338
303 302 306 307 307 308 308 308 309 309 308 310 311 308 305 308 310 310 308 307 306 306 303 300 300 300 300 300 299 299 299 298 298 298 298 298 299 301 307 302 302 301 302 305 311 319 329 331 333
306 305 305 307 307 307 308 306 306 306 307 307 308 309 305 305 308 307 306 305 304 303 302 301 300 300 300 300 299 298 298 298 298 298 298 297 298 298 298 298 298 299 300 300 301 303 308 317 328
302 304 308 307 307 308 306 307 306 306 307 306 307 306 305 304 307 306 306 304 303 302 302 301 300 299 299 298 298 298 297 298 297 297 297 297 297 298 298 298 299 300 301 301 300 300 301 303 308
304 303 304 307 307 306 305 306 306 305 305 306 306 304 305 306 307 306 304 303 302 301 301 300 300 299 298 298 298 298 298 298 298 298 298 298 298 298 298 298 298 303 299 299 304 308 306 303 303
302 302 305 306 305 305 304 303 304 306 304 305 304 303 305 306 306 304 303 302 301 301 300 300 299 299 298 298 298 298 298 298 298 298 297 298 298 297 297 298 298 299 299 300 299 299 300 301 302
304 303 306 306 305 305 305 303 303 305 303 302 305 302 303 304 304 303 303 303 302 302 301 299 299 298 298 297 298 297 297 297 297 297 297 297 297 297 297 297 297 298 299 300 300 300 300 300 301
306 305 305 306 304 305 304 303 302 303 303 304 304 302 302 302 302 302 303 303 303 302 300 299 298 297 297 297 297 296 296 296 296 296 296 296 296 296 296 296 296 297 298 299 300 300 300 300 300
306 306 306 305 304 304 303 303 302 302 301 301 301 302 302 302 302 303 304 304 304 302 299 299 298 297 296 296 296 295 295 295 295 295 295 295 295 295 295 295 295 296 297 299 299 299 299 299 299
305 305 303 304 304 304 304 303 304 302 301 301 302 301 301 301 301 303 304 304 304 302 300 299 298 296 295 295 294 294 294 294 294 294 294 294 294 294 294 294 295 296 297 297 298 298 298 300 301
304 303 304 305 304 304 303 304 303 302 301 301 301 300 300 300 302 302 304 304 304 301 299 298 297 296 295 294 294 294 294 293 293 293 293 293 293 293 293 293 294 294 294 295 296 297 299 299 299
305 304 307 308 305 303 304 305 306 303 303 303 303 298 299 300 301 303 304 304 303 300 298 297 296 296 294 293 293 293 293 293 293 293 292 292 292 292 292 292 292 293 294 296 297 298 299 298 298
307 308 309 310 305 304 303 304 304 304 304 302 301 301 300 299 300 301 302 302 301 299 297 296 295 294 293 293 292 292 292 292 292 292 292 291 291 291 291 292 292 293 294 294 295 296 297 298 298
311 310 308 308 306 304 303 302 302 303 303 302 300 299 297 296 297 297 298 299 298 298 297 296 294 293 292 291 291 291 291 291 291 291 290 291 291 290 291 291 291 292 293 293 294 294 296 297 297
306 306 305 305 305 303 303 302 303 303 301 300 297 295 294 294 294 294 295 296 295 295 294 293 292 291 290 290 290 289 289 289 289 289 289 290 290 290 290 290 290 291 291 290 291 292 294 296 295
305 305 304 305 304 303 303 303 303 301 299 297 297 296 294 293 292 293 294 294 294 293 292 292 291 290 289 289 288 287 287 288 288 289 289 289 289 289 289 289 289 289 289 289 291 292 293 295 295
305 305 306 305 302 303 302 303 304 300 299 298 296 295 294 293 292 292 292 293 293 292 291 290 290 289 289 287 287 287 287 287 287 288 288 288 288 288 288 288 288 288 288 289 290 290 292 294 294
308 303 303 303 300 306 302 304 304 300 300 298 297 295 294 293 293 292 292 292 292 291 290 289 289 288 287 286 286 286 285 286 286 286 286 287 287 287 287 287 287 287 287 287 288 290 290 290 292
305 302 302 303 301 298 303 298 303 301 300 299 296 295 294 294 293 293 291 291 291 290 290 289 288 287 286 286 285 285 285 285 285 285 285 285 286 286 286 286 286 286 286 286 286 287 287 288 290
302 303 304 302 305 307 300 301 304 299 299 300 297 296 294 293 293 292 292 291 291 290 289 288 287 286 286 285 285 284 284 284 284 284 284 285 285 285 284 284 285 284 284 285 285 286 286 287 288
301 303 299 307 304 301 301 301 303 301 298 297 295 294 293 293 293 292 291 289 289 289 288 287 286 285 285 284 284 284 283 283 283 283 283 284 284 284 283 284 283 283 283 283 284 284 285 286 286
304 300 301 301 304 302 301 298 303 295 290 287 288 288 294 294 292 291 291 289 288 288 287 286 285 285 284 284 283 283 282 282 282 283 283 283 282 282 282 282 282 282 283 283 283 284 284 284 284
304 303 301 299 289 295 298 302 299 299 294 292 291 295 295 293 291 290 289 289 288 287 286 285 284 283 283 283 282 281 281 282 282 282 282 281 281 282 282 282 282 283 283 283 283 283 283 283 283
301 300 299 293 296 298 300 300 301 296 291 293 291 293 293 291 290 289 288 288 287 286 285 284 283 282 282 281 281 281 281 281 281 281 281 281 281 281 281 282 282 283 283 283 283 283 283 283 283
302 299 300 298 297 295 297 300 293 293 289 290 291 292 290 288 287 286 287 288 286 285 284 282 281 281 281 281 280 280 280 280 280 280 280 281 281 281 281 282 282 283 283 283 282 282 283 283 283
298 296 295 294 295 290 296 298 289 289 286 286 291 292 287 287 286 284 285 287 286 285 283 282 280 280 281 281 279 279 279 280 280 280 280 280 280 281 281 282 282 283 282 283 283 283 283 283 282
Wind_Speed
2 1 6 3 4 4 3 7 5 5 3 1 2 6 6 5 2 3 14 18 18 16 15 14 12 13 14 15 15 15 14 14 14 11 11 12 11 9 8 4 8 5 7 5 9 9 9 9 8
0 3 2 1 4 2 5 5 6 3 1 3 5 3 4 3 5 8 13 17 15 16 14 14 12 13 13 13 13 13 13 12 11 11 9 10 10 11 9 7 4 6 4 7 4 7 9 9 9
1 3 3 4 4 5 5 1 8 2 5 3 3 5 4 5 3 19 16 22 21 16 14 13 12 12 11 10 10 10 10 11 11 10 9 9 9 8 10 10 7 6 4 4 4 3 2 8 10
3 5 4 3 7 7 4 2 5 6 3 4 2 4 2 5 19 14 30 24 18 14 13 12 11 10 9 9 9 10 10 9 9 9 9 10 10 9 8 8 9 8 6 6 6 5 3 2 7
1 3 1 2 6 7 7 5 4 3 3 3 4 3 3 3 14 29 27 22 19 14 12 11 9 7 6 6 6 7 8 9 9 9 9 8 9 10 9 8 8 8 8 9 9 10 10 8 7
3 3 2 3 7 6 5 1 2 3 1 1 2 7 5 17 26 27 22 20 16 15 11 8 7 4 3 4 5 6 7 8 9 9 10 10 10 10 11 11 9 10 11 11 10 11 12 11 11
4 3 4 4 6 8 2 4 4 4 3 3 2 5 2 8 22 23 20 18 16 12 10 8 5 4 3 4 3 5 7 8 9 10 10 10 10 11 11 12 11 11 11 13 12 12 12 13 13
3 3 3 3 3 5 3 2 3 3 2 3 1 5 5 10 24 23 18 18 15 11 10 8 6 4 2 3 6 6 6 6 8 10 11 11 10 12 13 13 13 13 12 12 13 14 14 14 14
2 2 3 4 2 2 4 3 2 3 2 2 2 5 3 27 27 23 20 18 16 14 11 9 7 5 4 1 4 6 7 8 8 8 10 12 12 12 12 13 13 12 14 13 13 12 12 14 13
3 3 6 1 1 1 5 5 6 2 5 2 2 3 23 31 29 23 18 19 19 17 14 10 8 5 6 2 1 3 4 6 7 10 11 12 12 12 13 12 13 13 14 13 13 14 14 14 15
5 5 2 1 4 1 2 7 5 1 8 8 4 8 10 15 22 21 21 23 23 19 16 14 10 7 5 3 2 1 2 4 5 8 10 12 14 15 14 14 14 15 14 15 15 14 14 16 16
3 6 3 6 2 2 1 4 6 4 9 4 1 6 10 8 12 19 23 24 24 23 21 16 11 8 5 3 1 1 1 3 5 7 9 12 15 15 14 15 15 14 14 15 15 15 16 17 17
3 3 6 6 7 5 2 7 5 13 11 9 7 7 14 11 13 22 24 23 20 24 24 18 12 8 5 4 2 1 2 4 7 9 10 13 14 15 15 14 14 14 14 14 16 17 19 18 18
1 4 8 8 9 5 5 5 1 10 8 7 6 8 10 12 19 23 24 22 22 25 24 17 12 9 6 4 2 2 4 6 9 10 12 13 14 14 15 15 14 12 11 13 15 18 18 18 18
3 5 8 7 5 5 3 6 7 14 7 9 9 8 8 10 18 20 28 23 26 25 23 17 12 10 7 5 4 4 5 8 10 11 11 12 13 14 14 14 14 13 13 14 15 16 17 19 20
1 2 4 3 5 1 3 7 4 3 3 4 4 8 8 8 16 18 21 21 27 26 22 15 11 8 7 5 5 6 7 9 10 11 11 12 13 13 14 14 14 14 14 14 14 14 17 21 22
2 3 5 3 1 3 4 5 7 5 4 9 9 9 9 7 4 13 19 22 25 25 21 14 9 7 6 6 6 7 6 7 8 8 11 13 14 14 14 13 14 14 15 15 15 15 15 16 18
4 3 3 3 2 3 6 12 11 13 8 8 8 8 7 9 8 14 24 24 22 17 13 9 7 6 5 5 6 7 7 7 9 11 10 11 14 12 11 13 12 13 15 16 15 16 14 15 18
3 3 4 5 2 5 5 9 14 14 7 6 8 7 9 9 7 19 22 22 21 15 12 8 6 5 5 6 6 5 7 10 10 9 8 8 9 9 10 13 12 14 16 18 17 17 15 15 18
2 1 5 5 3 3 6 15 16 6 5 6 7 7 7 5 7 9 11 10 8 9 7 7 5 5 5 5 6 7 10 7 11 9 7 4 4 7 11 11 12 12 14 15 13 13 15 13 13
2 3 2 3 6 2 7 7 6 4 6 7 7 6 5 6 5 3 4 4 7 7 7 7 6 6 6 6 8 9 8 6 5 7 9 9 11 10 9 9 10 12 11 11 12 13 14 11 9
2 1 1 2 4 2 4 5 5 4 6 6 5 6 5 5 3 4 6 6 4 4 6 5 6 7 6 7 9 7 7 7 6 8 10 10 8 9 8 10 12 11 10 9 12 11 14 16 13
3 1 2 2 3 4 3 3 6 3 2 2 4 4 4 1 1 2 4 5 5 5 5 5 5 6 6 8 8 7 8 8 10 11 11 11 9 8 11 12 11 10 10 11 13 15 14 15 15
2 2 3 2 2 2 5 4 4 2 4 1 2 2 5 6 6 5 5 6 6 7 7 6 6 6 7 9 8 8 9 9 10 12 12 10 10 12 12 11 13 14 14 14 15 17 18 19 18
5 4 3 3 1 5 4 1 6 3 3 3 3 7 7 6 3 2 3 6 8 9 8 6 6 7 7 9 9 8 9 9 10 10 11 11 13 15 16 15 16 17 16 16 15 17 17 18 20
3 5 4 6 2 4 2 5 5 5 4 4 4 6 5 6 5 4 4 4 4 5 5 5 5 6 8 9 9 9 9 8 10 10 10 13 16 15 14 15 16 18 17 18 18 19 21 21 20
3 2 3 4 3 3 3 3 3 2 5 5 6 6 7 7 7 6 5 5 6 6 5 5 7 8 9 11 12 10 7 8 10 11 12 13 14 13 14 16 16 16 17 18 19 20 20 20 22
2 2 4 3 1 3 5 4 5 4 4 5 6 7 8 7 8 6 5 5 5 6 7 8 9 11 12 11 9 9 8 10 9 10 12 12 13 13 14 15 15 17 18 19 19 21 21 21 24
2 1 1 2 3 5 2 5 4 8 6 5 6 6 7 7 7 6 6 5 5 7 10 12 11 11 10 9 9 9 8 8 9 11 11 12 12 13 13 14 15 17 18 18 18 19 21 21 22
2 5 5 4 5 2 3 6 5 6 5 5 6 4 5 4 6 6 8 6 8 10 11 11 11 11 9 9 9 8 6 8 9 11 11 11 12 11 11 12 13 15 16 15 16 19 20 21 22
Wind_Direction
357 339 307 315 67 73 257 260 241 309 52 31 59 83 139 98 99 190 130 142 142 140 133 113 97 88 81 76 74 71 68 66 61 60 56 43 38 38 30 16 27 7 12 319 255 249 254 249 243
113 343 285 69 96 100 266 269 94 348 98 90 61 50 88 144 131 131 129 147 150 145 142 120 103 91 84 76 71 67 63 61 56 54 49 37 39 31 25 27 353 14 9 22 314 268 254 249 245
84 305 85 130 153 187 219 48 156 127 48 42 70 63 107 162 130 150 152 148 151 153 150 123 105 96 91 81 71 62 56 54 54 47 40 30 20 11 17 13 1 360 352 351 13 25 302 248 246
356 12 6 113 230 259 227 315 156 141 58 68 100 79 48 301 154 163 149 155 159 157 154 127 114 105 95 82 70 60 47 36 28 26 25 20 17 13 358 352 5 342 318 319 284 282 252 251 241
287 68 64 227 253 260 266 201 153 122 132 203 155 162 113 26 156 153 156 163 165 163 160 143 132 120 101 75 56 44 38 43 37 25 17 9 7 13 9 357 359 346 348 340 294 292 272 272 270
9 102 68 231 249 284 278 1 118 128 125 96 132 115 187 149 147 157 160 164 174 170 164 152 147 138 106 68 43 27 22 17 27 29 19 10 12 6 9 1 345 325 319 320 319 309 289 281 269
131 99 215 252 260 302 213 311 63 359 358 328 196 121 165 163 158 159 161 166 170 176 172 164 140 120 92 65 42 29 29 29 28 26 22 19 6 3 355 345 338 333 323 314 308 305 306 298 285
119 113 271 251 248 268 308 34 133 81 287 273 357 175 205 204 165 164 164 165 172 177 178 176 168 149 105 58 48 57 48 32 25 19 16 16 10 6 2 357 351 342 335 321 314 308 303 301 296
41 59 229 256 1 325 327 35 16 169 319 355 36 121 213 160 163 167 163 159 164 171 187 185 183 165 127 79 44 52 51 42 31 21 11 7 5 2 356 354 355 351 342 329 340 333 311 304 300
113 151 222 266 48 15 335 19 330 5 308 280 84 16 143 156 165 171 175 177 176 180 180 198 196 178 158 190 84 53 35 30 18 9 2 2 359 354 348 347 345 340 342 338 331 321 318 311 295
195 208 236 174 140 105 344 327 328 74 282 219 212 177 177 164 171 179 190 193 191 190 194 197 200 186 180 171 143 59 20 12 7 1 0 354 351 345 342 338 337 335 339 333 332 326 317 312 309
242 251 287 305 43 84 327 326 329 235 237 218 148 178 173 177 186 188 195 200 201 193 190 195 198 192 175 170 163 110 355 350 355 354 351 344 342 343 341 337 334 334 335 336 335 324 318 313 307
210 276 295 311 306 276 214 247 238 266 269 275 293 162 183 184 193 202 205 206 207 192 180 191 195 194 179 187 199 279 336 336 341 341 344 341 341 341 338 334 330 331 339 339 330 322 323 322 317
154 305 285 280 268 240 241 266 138 268 259 259 260 211 192 191 196 200 206 208 200 181 178 184 185 192 189 202 251 310 323 321 326 332 335 337 337 336 335 335 336 335 333 328 323 323 329 324 320
352 327 308 260 241 196 99 297 232 256 276 284 290 251 214 212 206 197 202 198 183 172 174 180 187 200 203 210 254 296 307 308 318 323 328 330 330 330 329 330 333 332 328 322 320 324 322 320 318
278 159 316 304 112 227 138 264 269 269 129 299 280 249 259 238 212 208 203 184 173 163 166 173 192 203 214 230 261 281 293 304 319 324 325 323 320 316 319 324 328 333 334 333 331 335 325 328 329
263 231 212 286 226 124 182 252 259 268 321 276 274 270 253 245 149 135 150 152 159 159 162 168 190 214 229 258 277 290 301 313 315 309 312 312 311 317 321 325 326 334 334 328 333 328 331 328 330
181 225 305 273 5 204 250 258 271 279 265 262 290 317 24 61 46 85 114 127 138 149 161 172 191 221 249 267 278 286 289 283 289 302 308 306 312 321 325 320 327 331 317 316 320 324 327 325 325
141 173 238 272 338 338 255 286 284 281 294 334 65 58 66 57 46 80 100 116 123 131 147 163 181 201 252 282 296 292 300 308 318 325 326 340 340 335 324 323 314 312 316 315 315 319 324 327 325
97 301 276 282 67 359 297 294 293 348 71 85 77 67 66 68 44 57 82 100 118 141 157 170 181 209 262 289 294 301 309 313 326 329 322 341 339 317 314 312 316 314 319 329 327 324 318 315 322
205 205 264 241 335 309 325 310 349 45 82 78 64 86 73 115 115 83 86 121 142 158 173 167 181 234 269 284 292 301 304 307 325 329 315 313 311 315 315 310 306 305 307 314 311 309 308 310 313
195 123 98 20 49 258 52 282 335 62 69 70 70 69 73 63 111 167 170 170 171 153 163 197 246 265 283 288 299 307 311 315 318 319 314 315 315 318 314 309 311 315 318 309 308 307 300 305 299
193 115 135 96 69 48 318 81 272 183 59 46 84 75 51 36 254 202 154 167 170 194 224 240 260 281 291 293 296 298 296 299 303 307 307 307 318 314 312 316 323 324 315 308 303 303 295 289 289
120 71 73 73 78 322 242 149 264 253 204 111 122 347 321 305 283 255 227 222 240 244 250 258 249 265 278 285 290 296 300 308 310 311 317 326 325 322 325 326 316 310 308 297 293 290 286 288 287
69 72 1 334 351 221 256 118 252 229 222 186 281 310 312 304 300 283 226 237 254 241 235 229 243 278 281 284 289 292 293 303 302 309 320 322 324 321 317 317 317 316 310 309 306 306 301 298 290
155 141 156 214 240 257 323 240 262 218 255 258 253 274 311 333 315 292 262 246 248 226 233 239 254 267 276 280 287 287 290 293 299 303 301 307 307 309 312 311 311 309 311 310 306 303 298 295 289
182 157 143 95 33 44 231 281 350 135 346 348 333 329 320 315 311 302 274 258 252 247 256 262 271 272 275 282 286 291 294 298 291 293 298 297 298 303 304 311 316 317 315 311 305 299 295 291 292
118 159 65 7 178 267 288 265 226 198 284 313 327 331 321 318 328 312 305 274 256 251 255 266 270 273 279 287 289 291 284 284 289 289 289 293 296 303 308 314 316 315 313 311 311 309 304 295 290
146 66 142 126 168 165 259 264 220 168 209 247 290 308 306 314 323 312 304 294 245 255 270 276 272 272 277 284 291 287 278 290 289 286 291 297 304 308 309 313 312 311 312 315 313 308 306 308 297
183 192 151 141 245 208 152 271 201 178 204 221 276 302 292 306 332 318 305 294 276 278 283 280 273 273 278 279 278 285 287 287 289 290 293 295 299 305 307 309 309 312 313 317 321 320 317 313 308